Wind_Speed
12 10 12 14 15 19 20 20 19 16 17 17 15 13 15 15 12 16 17 16 19 14 15 17 9 14 14 11 10 7 7 8 10 11 9 10 9 8 10 9 10 10 8 11 14 13 16 20 22 23 23 23 22 19 18 17 16 15 14 14 13 11 11 12 11 10 8 5 3 4 5 7 7 3 0 5 11 11 13 13 13 14 14 13 13 13
13 12 15 19 19 21 21 20 19 19 20 17 15 13 14 14 12 16 17 16 20 12 13 16 8 15 11 10 9 7 9 10 11 13 12 11 9 8 11 12 11 10 9 11 14 14 16 17 18 18 19 22 22 19 18 18 17 15 14 14 13 11 11 12 11 10 9 5 4 5 5 8 8 4 3 7 10 11 12 13 12 12 13 12 12 13
13 14 19 22 19 20 20 19 19 20 21 16 13 12 11 13 13 15 17 18 19 10 11 14 12 11 8 9 9 8 9 9 11 12 11 10 9 8 11 12 11 11 11 12 13 15 16 16 16 15 17 19 21 20 18 18 19 16 16 16 14 13 13 13 14 13 10 8 7 8 8 10 7 4 6 8 9 9 10 12 12 11 11 12 12 13
13 14 19 20 19 20 20 20 21 18 17 14 12 11 10 13 13 11 15 17 17 9 11 9 13 7 5 7 8 9 7 8 10 10 9 8 8 7 9 11 12 14 14 13 13 14 15 16 15 15 15 16 18 19 19 20 18 16 17 18 17 16 15 16 17 16 14 12 11 9 8 7 5 3 6 7 8 8 8 10 11 11 11 12 13 14
14 14 17 19 20 22 21 20 21 15 12 15 16 13 10 14 18 14 11 12 12 10 12 8 11 4 4 6 7 8 8 7 8 10 9 8 7 4 5 9 12 14 14 15 15 13 14 16 17 17 15 14 16 18 19 18 15 17 19 19 18 18 19 18 17 17 17 15 15 13 7 6 7 5 5 6 6 8 8 9 10 11 12 13 13 14
15 16 17 20 20 22 21 17 19 16 11 14 17 17 14 13 18 20 13 12 8 8 11 9 4 3 6 8 9 9 9 9 10 12 11 10 10 9 8 8 10 13 14 14 15 13 14 16 17 18 16 16 17 16 16 15 16 20 21 20 20 20 20 18 15 14 14 13 15 14 9 10 8 7 6 6 7 8 8 8 7 8 11 13 12 12
12 17 18 20 21 22 20 15 18 19 12 10 14 18 19 14 17 22 15 12 8 7 9 10 7 3 7 9 10 11 11 12 11 11 11 10 10 10 7 5 7 12 13 13 14 13 13 16 16 16 17 18 18 17 16 18 20 21 20 20 21 21 20 17 14 13 11 11 12 12 9 7 8 9 7 6 7 7 7 7 7 6 8 11 13 13
13 20 20 21 22 19 17 15 17 21 15 9 12 17 20 18 18 19 14 11 8 7 9 13 11 6 6 8 11 13 12 13 12 10 11 10 9 9 8 5 6 11 13 12 13 13 13 15 17 17 18 18 19 18 18 19 21 21 21 21 20 20 19 17 15 12 10 9 10 10 8 8 9 8 7 5 6 7 7 8 9 9 9 10 12 12
16 20 21 22 20 14 15 16 17 20 15 9 12 17 18 17 16 14 12 11 9 8 9 12 12 7 5 9 12 13 13 13 13 14 14 10 8 8 8 5 7 11 13 12 13 13 13 16 18 18 18 19 19 19 19 21 22 23 24 22 20 19 17 16 15 13 11 9 9 9 8 8 7 6 7 7 6 7 8 9 10 10 10 10 11 11
14 17 19 20 16 13 15 18 17 19 15 11 13 16 15 16 14 13 11 11 9 8 9 11 13 8 6 8 12 10 11 12 11 12 12 10 9 9 9 10 10 12 12 12 12 12 14 17 18 19 20 19 18 17 20 23 24 25 25 23 21 19 16 15 14 13 11 10 9 9 8 8 7 7 9 9 8 8 8 9 9 9 9 10 10 11
15 15 16 15 14 13 15 17 17 17 17 14 14 12 11 12 10 10 9 9 8 7 10 14 15 11 7 7 12 10 10 12 11 10 11 12 13 14 12 11 11 12 11 12 12 12 16 20 20 20 21 19 18 17 19 22 24 24 23 23 22 19 15 15 13 11 10 9 9 8 8 8 8 8 9 10 10 9 9 9 8 8 8 9 10 11
18 15 12 12 16 17 16 16 15 14 16 16 14 9 8 8 8 8 6 5 5 6 10 16 16 13 8 5 11 12 13 16 13 12 15 14 14 14 13 11 11 12 12 13 12 11 15 19 19 20 21 20 20 19 18 19 21 21 21 22 21 18 16 15 13 11 10 9 8 7 6 6 7 7 8 10 10 9 9 9 8 8 8 9 9 11
15 16 16 15 18 19 16 13 12 12 14 15 13 9 9 8 8 7 6 5 6 7 10 14 15 12 8 6 12 15 16 20 17 13 15 15 13 13 14 14 12 12 13 12 12 11 11 14 17 19 21 21 20 19 18 18 19 20 20 20 19 17 15 14 13 11 10 8 8 7 6 6 7 8 9 11 10 9 9 9 8 8 9 9 9 11
12 16 21 17 13 15 14 12 10 11 13 14 11 10 9 8 7 7 7 7 7 8 10 13 13 9 7 5 14 20 17 18 16 12 12 13 13 13 14 14 13 13 14 12 11 11 10 12 16 19 20 20 20 20 18 18 19 20 19 18 18 16 15 14 13 11 10 9 8 8 8 8 9 9 11 11 10 10 10 9 9 9 10 10 10 11
11 12 16 14 9 12 15 13 12 11 12 12 10 9 9 7 7 7 7 7 7 8 10 12 9 6 5 3 12 18 17 18 15 12 13 12 11 11 12 13 13 14 14 12 11 11 12 15 17 19 19 19 19 20 18 17 20 20 18 17 16 15 15 14 12 11 10 9 9 9 10 10 10 10 11 11 11 11 10 10 10 11 11 11 11 12
13 10 14 16 13 16 17 15 13 13 11 10 10 9 9 8 7 5 6 6 3 5 7 8 4 0 2 5 10 13 16 20 18 17 18 15 12 11 11 13 13 13 13 13 12 11 14 17 18 18 18 19 20 20 19 18 19 19 18 17 16 16 15 13 12 12 11 10 10 11 11 12 12 12 12 12 12 12 11 11 12 12 11 11 12 12
12 10 16 20 17 19 20 18 15 13 9 8 9 11 10 10 8 5 6 3 1 3 6 6 4 4 6 7 10 13 15 18 19 20 19 17 16 15 13 12 13 13 13 13 13 13 16 19 19 18 18 19 20 20 20 19 19 19 18 18 17 16 15 14 13 13 13 13 12 12 12 13 12 12 13 13 13 13 12 12 13 12 12 12 12 13
10 8 15 21 19 19 20 20 16 14 11 8 9 11 9 11 10 5 5 4 3 5 5 8 10 7 6 5 8 14 16 15 17 20 20 20 20 17 14 13 14 14 15 15 15 14 17 19 19 20 20 20 21 21 21 21 19 18 18 18 17 17 16 15 15 14 14 14 14 13 14 14 13 13 14 13 14 14 13 13 13 13 13 13 13 13
10 8 12 20 20 17 18 17 13 13 17 12 9 10 8 8 9 6 4 5 7 6 5 9 12 9 7 7 9 13 15 16 17 18 18 20 20 16 14 15 16 16 15 15 14 11 13 18 20 21 22 22 22 22 22 21 20 19 19 18 18 18 17 16 15 15 14 14 15 15 14 14 14 14 14 14 14 15 14 14 14 14 14 13 14 14
10 7 8 17 18 14 13 12 9 11 16 13 10 11 9 7 7 7 5 5 6 6 5 8 9 7 6 9 14 15 14 17 17 15 15 17 16 13 12 14 15 15 14 14 12 10 12 18 21 21 22 24 23 22 21 20 19 19 19 18 18 18 17 15 14 15 14 14 15 16 15 15 15 15 16 15 15 15 14 14 14 14 14 14 14 14
8 6 5 12 15 13 10 11 11 11 12 11 9 10 10 7 6 7 7 6 7 6 5 6 6 5 4 6 15 16 13 17 18 15 13 14 15 14 13 13 13 14 15 14 11 11 13 18 22 22 23 24 23 21 21 20 19 19 18 18 18 18 17 15 15 14 15 15 16 16 16 16 16 16 16 15 15 15 15 15 15 14 14 15 14 14
6 5 6 8 11 12 12 14 15 13 12 11 8 8 10 8 8 8 8 9 7 6 6 6 6 3 1 3 11 12 10 16 19 15 13 14 15 15 14 14 14 13 13 13 12 12 13 17 22 23 23 23 22 21 20 19 19 19 18 18 18 18 16 15 15 15 16 16 17 17 17 17 16 16 15 15 15 15 15 15 15 14 15 15 15 14
6 5 8 9 10 12 14 17 18 16 14 14 11 9 9 9 9 8 7 7 6 6 7 6 5 2 2 0 8 10 9 15 19 16 14 14 13 15 16 15 15 15 14 13 13 12 15 19 21 22 22 22 21 21 20 19 20 19 18 18 18 17 16 15 15 16 16 17 17 17 17 17 16 16 16 16 16 15 15 15 14 14 14 15 15 15
5 5 8 9 8 10 13 16 18 18 14 12 12 10 8 9 10 8 6 6 5 7 8 5 4 3 1 3 5 11 11 13 17 18 17 15 12 14 17 16 14 15 15 14 13 13 16 20 21 21 22 21 21 21 20 19 20 20 18 17 17 17 17 16 16 16 17 17 18 18 18 17 16 16 16 16 16 16 15 14 14 14 14 14 14 14
5 6 7 8 8 9 11 12 15 17 13 9 9 11 11 12 12 9 7 6 5 9 10 7 4 5 2 1 5 11 13 13 14 16 17 15 13 14 15 15 14 14 14 14 13 14 16 17 19 19 20 21 21 20 20 19 21 21 17 16 18 17 17 17 17 17 18 18 18 18 17 17 16 16 16 16 16 15 15 15 14 14 14 14 14 14
5 6 7 8 9 10 11 10 11 12 10 8 10 14 16 17 14 11 7 6 5 8 11 8 1 5 4 5 7 8 11 14 14 15 15 14 14 14 13 14 14 12 13 15 14 14 14 14 16 19 20 21 21 20 20 19 20 21 17 16 18 18 17 18 18 18 18 18 18 18 17 17 17 17 17 16 16 15 15 15 14 14 14 14 14 14
5 6 8 10 10 10 9 9 11 12 11 11 12 16 17 17 15 10 6 5 5 6 8 6 4 8 6 7 10 9 9 11 13 16 16 13 13 14 14 14 12 10 12 14 13 12 13 12 15 18 20 20 21 21 21 19 19 19 19 18 18 18 18 19 19 18 18 18 18 18 18 17 17 17 17 16 16 15 15 14 14 14 14 13 14 14
3 7 10 13 13 12 12 12 15 16 15 15 14 14 17 17 15 9 7 8 7 6 6 5 9 10 7 8 10 10 9 10 12 15 15 13 13 14 14 14 13 12 12 13 13 13 13 12 13 17 19 20 21 21 21 19 19 20 20 19 19 19 19 20 19 19 18 18 18 18 18 17 17 17 17 16 16 15 15 15 14 14 14 13 14 13
3 7 10 13 13 13 15 17 17 15 14 17 17 14 14 17 17 12 8 10 10 7 5 6 11 10 8 9 10 9 10 11 12 13 13 13 14 16 17 17 16 15 14 15 15 15 15 14 14 16 19 20 20 21 21 19 20 21 20 20 20 19 19 20 20 19 19 18 18 18 18 17 17 17 16 16 16 16 15 15 14 14 14 13 13 13
4 6 10 12 12 13 13 13 15 16 14 16 16 14 12 13 16 14 12 11 10 9 7 5 8 9 9 9 10 10 9 9 10 12 14 15 15 17 19 19 18 17 16 16 16 15 15 15 16 19 21 20 21 22 22 20 20 21 21 21 20 20 20 20 20 20 19 19 18 18 18 18 18 17 17 17 16 16 15 15 14 14 14 14 13 13
4 5 9 11 8 10 10 8 10 16 17 15 14 16 15 14 15 16 14 11 9 9 8 7 6 6 8 9 11 11 10 11 11 12 14 16 16 17 18 18 19 18 17 16 16 16 16 16 17 19 20 20 21 23 22 21 21 21 21 21 20 20 20 20 20 20 19 19 19 19 18 18 18 17 17 17 16 16 15 15 15 14 14 14 13 13
4 4 7 8 5 6 8 7 8 11 16 17 16 17 18 14 12 11 11 10 9 8 8 8 6 4 5 7 10 12 13 14 14 13 12 14 16 17 17 18 19 19 18 18 18 18 17 17 16 18 20 20 22 23 22 22 22 22 21 21 21 21 20 20 20 20 20 20 19 19 18 18 18 17 17 17 16 16 15 15 15 15 14 14 13 13
6 4 5 7 5 4 6 6 5 5 8 10 10 12 15 13 11 9 9 10 9 7 6 6 5 4 4 5 9 13 14 13 14 14 12 13 16 17 17 18 19 19 20 19 19 18 17 17 18 20 22 22 23 24 23 22 22 22 21 21 21 21 21 21 21 21 20 20 20 19 19 18 18 18 17 17 16 16 15 15 15 14 14 14 13 13
8 6 5 6 6 6 7 5 4 5 5 3 2 5 10 12 13 12 11 9 9 8 6 6 7 5 5 6 9 13 14 12 13 13 12 13 15 16 18 19 18 19 19 18 18 17 16 18 20 23 24 23 23 26 24 21 21 22 21 21 21 21 21 21 21 21 21 20 20 19 19 18 18 18 17 17 17 16 16 15 15 15 14 14 13 13
8 6 5 5 5 6 8 6 5 7 4 1 4 6 9 9 10 11 12 13 14 12 10 9 11 9 7 7 9 12 12 13 14 14 14 15 15 16 19 19 19 20 19 17 17 16 17 21 23 24 24 23 24 27 23 21 22 22 22 21 21 22 21 21 21 21 21 21 20 20 19 19 19 19 18 17 17 16 16 15 15 14 13 13 13 12
8 6 4 5 5 5 7 8 6 4 3 2 2 3 6 8 6 6 9 11 13 13 12 13 13 11 9 8 9 10 10 12 14 14 15 17 16 17 18 18 19 20 18 18 17 17 20 24 25 26 25 23 27 28 24 23 24 22 21 21 21 21 22 21 21 21 21 21 20 19 19 19 20 19 18 18 17 17 16 15 14 14 13 13 12 12
9 7 5 4 5 5 6 7 5 4 4 2 1 2 5 6 5 5 5 5 8 9 11 12 12 11 11 9 10 10 9 10 10 10 15 17 17 18 17 17 19 19 19 21 21 21 24 26 26 27 24 24 29 28 25 25 25 22 21 22 21 22 22 22 21 21 21 21 20 20 20 20 20 20 19 18 17 17 16 15 14 14 13 13 12 12
9 8 6 4 4 5 6 6 6 5 4 6 7 7 7 7 7 6 4 5 8 9 8 10 11 11 9 9 9 9 8 9 8 8 13 17 17 17 17 17 19 21 22 24 24 24 26 27 27 26 24 26 29 28 26 26 25 22 22 22 22 23 22 22 22 22 22 21 21 21 20 20 20 20 19 18 18 17 16 15 14 13 13 12 12 12
13 9 6 5 4 5 6 5 5 4 4 7 11 11 9 6 6 6 5 6 8 9 11 12 13 11 10 8 7 9 8 8 7 7 12 16 17 16 17 17 20 23 26 27 27 26 26 28 28 26 25 28 28 28 30 27 24 23 22 22 23 23 22 22 23 22 22 22 21 21 21 21 20 20 19 19 18 17 16 15 14 13 12 12 11 11
12 8 6 7 5 5 5 5 3 1 2 2 9 11 10 7 5 6 7 6 5 8 12 14 13 12 11 8 7 10 8 7 5 7 14 17 17 17 18 18 20 24 27 29 30 28 28 30 30 26 26 28 27 28 30 26 23 23 23 22 23 23 22 23 23 23 23 22 22 22 21 21 20 20 19 19 17 16 16 15 14 13 12 11 11 10
9 6 5 7 7 6 5 5 3 2 1 3 8 9 8 6 5 7 6 2 4 4 9 13 13 12 11 8 8 8 5 1 2 8 16 19 17 17 19 22 24 27 29 30 31 30 29 30 29 26 26 27 27 28 28 25 23 23 23 23 23 23 24 24 24 24 24 23 23 22 21 21 20 20 19 18 17 16 15 14 13 12 11 11 11 11
7 6 6 7 7 6 6 6 6 3 1 3 8 8 6 5 5 4 2 3 6 6 2 7 10 9 7 7 7 4 2 5 7 12 16 18 16 16 19 23 25 26 28 30 31 31 30 29 28 28 28 28 28 28 26 24 23 24 23 23 23 24 25 25 25 25 24 23 23 22 21 21 20 20 19 17 17 16 14 13 12 11 11 11 11 10
5 5 6 6 5 5 6 7 6 3 3 6 9 9 5 3 1 0 1 3 5 7 5 2 5 4 4 7 7 6 6 7 11 14 15 15 15 15 18 21 22 23 26 29 31 32 30 28 27 29 29 28 28 27 25 24 25 24 23 23 23 25 26 26 26 25 24 24 23 22 22 22 20 19 18 17 17 16 14 13 12 11 12 11 11 9
8 6 5 5 5 6 5 4 2 1 4 6 5 4 3 2 2 2 2 3 4 5 4 1 0 3 8 9 7 8 8 8 10 13 14 14 15 15 16 18 20 23 27 29 31 33 31 28 27 29 28 27 28 27 25 25 26 24 23 25 26 27 27 26 26 25 25 24 24 23 22 21 19 19 18 17 16 15 14 13 12 12 12 11 11 11
5 4 2 3 3 3 1 3 3 3 5 5 4 4 5 4 4 4 4 4 4 3 3 1 3 5 8 8 7 8 9 9 10 12 13 13 14 15 17 19 22 25 28 29 32 33 31 28 28 29 29 29 30 29 26 25 26 25 25 26 28 28 28 27 26 26 25 24 24 23 22 20 19 18 18 17 16 14 13 13 12 11 10 10 10 10
1 3 3 2 1 2 5 6 5 5 6 5 4 5 5 4 4 4 5 5 5 4 3 1 4 5 6 8 8 7 7 9 11 11 12 13 14 14 17 19 22 26 29 29 30 30 29 27 27 28 30 30 30 30 28 26 26 27 26 28 29 28 28 27 26 26 25 24 23 23 21 20 19 18 18 16 15 14 13 12 12 10 10 10 9 8
2 1 1 3 2 1 3 4 5 7 6 2 1 3 4 3 4 5 5 5 5 5 4 3 4 5 6 7 8 7 8 10 10 10 11 13 14 15 16 16 19 25 28 28 28 28 27 28 28 27 28 28 27 28 29 27 27 27 28 29 29 28 28 28 27 26 25 24 24 22 21 21 20 19 18 16 14 14 12 11 11 10 9 9 9 8
2 2 3 4 5 4 4 5 3 5 6 4 3 2 3 3 4 5 5 5 5 5 5 4 3 5 5 6 7 7 8 9 10 11 11 11 12 14 15 15 20 25 27 28 29 28 26 27 28 26 28 28 27 28 30 28 28 28 28 29 29 28 28 28 27 26 25 24 23 22 21 22 21 20 18 16 14 14 12 10 11 10 8 8 8 8
1 1 3 4 5 5 5 6 1 2 5 2 0 2 4 4 4 4 3 3 4 5 5 4 3 4 5 6 7 7 8 9 10 10 11 11 11 12 13 17 23 26 26 27 30 30 27 27 28 27 28 29 29 29 30 29 29 30 29 29 29 28 29 28 27 26 25 24 23 22 22 23 22 20 18 16 14 12 11 9 10 10 9 8 7 7
1 1 2 2 3 2 3 4 2 2 3 1 3 4 5 4 4 2 1 2 3 4 5 4 5 5 5 6 7 7 8 9 9 10 10 10 10 11 14 19 24 25 24 26 29 30 27 28 29 29 29 29 29 30 30 29 30 30 29 29 29 28 29 29 27 26 24 23 23 23 23 23 21 18 17 16 14 13 11 9 7 7 9 8 7 7
2 2 3 2 1 3 5 4 3 3 3 1 2 3 4 3 2 1 2 2 2 4 4 4 5 5 5 6 7 7 9 9 10 10 9 9 11 13 15 19 23 24 23 25 27 27 26 28 29 30 29 29 30 30 30 30 30 30 29 29 28 29 29 28 26 25 23 23 23 23 23 22 20 18 17 16 14 14 13 10 8 7 6 5 6 8
Wind_Direction
209 206 203 210 208 208 211 213 213 218 221 212 210 209 213 227 221 225 228 180 175 201 210 216 189 115 118 137 150 153 137 129 133 139 155 162 153 153 155 148 140 135 140 135 132 137 133 130 133 133 134 131 127 129 128 125 129 129 124 128 124 115 124 125 113 104 99 101 104 85 87 95 97 104 298 66 72 66 60 57 57 57 51 50 53 46
209 212 210 210 209 210 211 214 214 219 230 225 216 212 209 225 226 223 223 176 171 197 210 203 130 102 130 141 143 150 143 143 146 154 162 159 154 161 158 144 133 131 137 136 132 132 129 130 135 133 133 133 132 133 132 128 129 128 127 127 127 131 133 126 116 113 120 136 138 128 116 96 93 98 71 64 67 65 60 53 50 55 52 48 50 47
206 216 213 209 210 214 211 213 216 218 230 234 226 219 207 218 228 225 219 186 169 187 215 186 122 105 135 124 133 157 155 147 148 153 151 149 157 169 153 133 132 139 137 137 134 133 133 134 135 132 133 132 130 132 131 129 130 133 134 132 138 142 133 121 113 112 117 114 111 121 111 91 82 81 84 77 72 66 61 57 50 48 51 47 46 46
204 215 211 208 208 212 212 210 213 218 227 237 236 226 212 210 220 228 217 191 160 173 223 165 107 105 130 120 141 153 149 141 137 134 134 148 161 171 154 141 149 148 137 137 136 134 135 134 131 129 131 129 126 128 130 133 134 138 138 134 136 134 120 114 111 112 113 109 109 101 84 89 106 113 97 86 74 62 50 47 44 39 42 44 43 41
209 209 206 209 207 209 214 208 208 216 220 230 236 232 222 207 215 232 211 172 150 184 211 142 97 105 152 145 151 145 144 147 143 139 148 167 159 156 171 162 156 145 140 141 137 138 140 138 136 134 135 133 129 131 133 137 136 135 136 133 128 119 111 114 117 120 124 125 121 107 103 146 147 127 101 87 73 60 49 43 42 40 37 37 38 38
212 203 199 208 207 207 214 211 204 211 217 223 228 232 237 217 214 228 204 160 170 200 190 167 146 156 170 175 164 157 160 165 170 163 165 175 164 168 185 176 154 142 144 142 137 144 144 140 141 137 136 134 130 131 134 136 135 132 132 129 123 115 114 118 120 122 128 129 122 125 162 188 157 117 86 74 68 63 61 56 54 53 44 38 36 36
211 202 197 204 207 204 211 216 205 207 217 219 216 228 244 241 225 226 202 165 194 209 171 184 217 182 173 192 176 168 174 174 173 170 178 182 172 171 168 174 170 145 141 142 140 144 144 142 139 132 133 135 129 127 130 132 129 126 123 119 116 114 113 114 113 112 115 112 109 125 161 171 132 106 85 75 75 73 71 64 56 47 41 39 37 34
205 202 198 202 206 201 207 217 204 204 216 214 206 221 239 247 243 230 200 172 197 212 185 191 215 224 192 197 183 169 174 177 171 179 193 189 177 165 143 166 189 145 139 147 143 143 147 144 137 132 132 132 127 124 124 124 121 116 111 106 104 105 101 98 98 97 107 114 110 116 121 110 106 103 99 100 94 86 81 74 62 45 36 40 41 38
202 204 197 197 205 202 204 214 204 203 216 214 203 214 230 241 254 250 216 198 204 212 214 197 199 227 216 187 178 168 173 183 178 185 190 178 170 154 136 183 195 145 143 148 142 146 149 140 134 134 132 129 126 123 121 121 119 115 109 103 100 99 93 90 88 83 92 112 114 114 110 106 111 121 127 125 111 99 88 77 66 55 49 50 48 44
198 208 201 194 206 207 202 211 208 202 209 219 213 210 220 230 248 264 233 205 207 213 232 211 189 218 240 177 167 169 181 186 181 184 179 161 164 161 163 191 179 147 147 144 141 149 142 133 134 135 131 128 123 117 118 118 118 115 111 107 103 99 95 95 93 88 92 102 107 115 122 127 139 147 145 139 128 118 103 82 69 64 62 57 49 45
190 204 212 197 203 210 201 207 212 205 200 216 227 213 210 222 236 262 240 200 202 213 234 227 200 204 236 184 166 177 185 179 174 175 166 155 165 172 177 182 159 145 148 141 143 146 132 130 136 136 131 128 123 119 118 116 116 114 110 107 104 101 98 98 99 100 98 95 101 117 130 139 150 150 143 137 129 119 107 94 81 76 73 65 55 48
190 191 216 204 201 208 202 203 210 204 196 214 232 210 191 212 220 244 244 199 206 217 227 233 217 205 225 199 169 177 178 174 176 173 163 161 168 171 169 165 153 146 143 141 144 140 130 133 138 136 132 131 130 126 122 118 116 114 111 109 107 106 105 105 109 110 106 103 109 121 131 131 136 137 130 121 113 109 104 100 96 92 84 72 62 54
198 188 204 204 201 203 195 195 202 194 195 216 227 201 187 201 204 215 219 203 223 229 219 228 228 217 227 213 177 175 170 170 178 174 162 164 168 166 163 159 153 145 140 140 141 138 137 140 139 136 134 135 133 129 128 124 119 114 113 113 112 111 109 110 112 113 115 119 122 129 128 120 120 118 114 110 106 105 105 104 104 99 90 78 67 59
200 189 194 194 193 198 193 189 194 189 195 211 212 197 195 195 191 200 206 205 220 230 220 225 233 224 231 214 169 167 164 161 163 156 156 168 167 161 162 158 150 146 143 141 143 144 143 141 139 138 138 137 134 131 131 127 119 115 116 117 117 117 116 117 118 121 124 122 123 126 121 118 118 109 106 109 111 111 110 111 108 99 91 83 72 65
198 184 185 189 183 193 205 208 197 188 198 205 198 199 206 203 194 195 205 206 210 225 217 214 226 230 232 186 147 156 155 144 139 144 162 171 162 156 161 160 150 143 145 146 147 147 144 142 142 142 141 139 135 130 127 122 117 118 122 123 122 120 120 121 120 121 121 115 113 113 112 114 115 110 108 109 112 116 118 116 107 98 92 84 76 70
200 182 177 191 197 195 209 224 206 190 200 199 190 201 213 213 197 184 213 217 209 236 221 201 200 128 161 144 142 155 152 143 144 159 169 160 153 164 170 165 154 145 148 149 148 149 145 144 145 144 144 140 134 130 129 128 126 128 131 128 123 120 119 120 119 118 116 113 108 106 108 113 116 118 118 114 114 119 119 112 103 96 92 86 79 74
197 184 174 187 204 200 204 220 209 193 199 188 187 207 216 217 205 179 209 214 45 248 222 200 188 113 116 147 160 167 161 154 152 157 162 156 159 175 176 167 157 147 150 150 150 155 151 149 149 147 145 142 137 136 137 137 135 134 132 127 123 122 122 123 121 119 117 115 113 111 113 118 121 123 122 120 120 122 117 108 100 95 90 85 80 75
201 189 172 184 201 198 200 215 211 198 205 194 187 204 213 220 215 188 197 194 196 232 219 208 207 174 155 177 177 171 163 157 155 157 162 162 165 174 171 160 153 146 149 150 150 154 153 152 151 148 148 147 144 142 140 138 136 134 131 128 127 127 127 126 123 122 122 121 120 120 120 122 123 124 124 125 125 122 115 106 100 95 89 84 80 77
204 195 171 185 196 188 192 212 211 200 212 213 192 197 213 223 207 183 198 202 198 217 227 217 212 196 186 183 173 176 168 156 159 164 165 163 165 170 166 157 149 145 147 148 149 152 153 154 153 152 152 148 144 142 140 139 138 134 130 129 130 128 127 126 126 127 127 127 126 125 124 122 122 123 123 123 122 117 110 103 99 94 89 85 81 78
194 214 172 179 187 178 182 207 207 193 208 216 197 195 217 232 209 191 194 205 203 209 219 219 210 204 211 183 168 180 174 154 159 168 162 160 163 163 161 156 148 147 150 148 149 153 155 156 155 153 149 146 144 142 139 138 137 133 130 131 131 128 126 128 129 129 129 128 127 125 122 120 119 120 119 118 117 111 104 101 98 93 89 86 82 79
193 227 167 167 178 178 183 203 207 191 191 208 204 196 207 218 218 207 195 200 208 207 214 223 211 205 234 181 163 173 169 150 158 171 159 154 159 154 154 154 147 150 153 147 150 156 156 156 154 150 146 144 144 142 139 137 134 133 133 132 130 127 127 129 128 128 127 126 124 122 120 119 118 117 116 114 110 106 103 100 97 94 91 87 83 80
204 200 152 168 189 193 193 195 205 204 188 196 215 208 201 204 212 212 206 207 207 207 216 225 219 201 6 129 151 165 168 148 153 164 152 149 158 154 152 153 149 151 151 149 154 156 153 154 152 149 146 145 144 143 143 140 135 134 135 133 131 129 130 131 129 128 127 124 123 122 121 119 118 117 115 111 107 104 101 99 96 94 91 87 83 80
205 194 176 190 197 195 193 191 203 214 199 196 217 221 205 203 213 217 210 201 207 223 222 218 215 168 36 160 161 161 167 151 148 154 153 156 164 157 153 155 152 149 149 154 157 154 153 153 150 148 147 147 147 145 145 142 136 135 137 137 135 133 133 134 132 130 130 127 125 124 123 120 119 117 113 109 106 104 102 99 97 94 90 87 84 80
190 204 190 187 186 189 193 191 200 214 212 203 211 219 219 211 209 222 220 190 203 228 219 207 200 161 25 293 172 152 160 155 149 154 158 158 159 157 157 156 151 147 150 156 156 152 153 151 149 151 151 150 150 147 146 143 138 138 141 141 138 137 136 136 134 133 132 130 127 125 123 120 119 116 112 109 106 105 103 101 99 96 92 90 86 83
185 192 189 183 178 186 193 188 193 206 212 212 205 202 221 224 203 207 222 202 212 232 223 219 198 149 137 251 153 155 166 160 148 151 154 151 148 156 160 153 145 144 148 153 152 152 153 152 152 155 153 153 153 150 149 148 142 140 144 143 140 140 140 138 137 136 134 132 130 127 124 121 119 116 113 111 108 106 104 101 98 96 93 90 87 84
186 185 196 196 184 187 195 187 185 193 198 213 207 193 211 230 215 199 212 212 211 221 227 241 195 122 138 162 153 153 161 157 144 138 142 147 147 150 152 148 144 144 146 150 152 153 155 155 156 156 155 156 155 151 152 155 147 140 142 145 144 144 142 139 139 138 136 134 131 128 125 123 120 117 115 112 110 107 105 103 100 97 94 91 88 85
191 197 212 221 208 193 192 184 178 182 192 208 209 194 202 229 232 210 198 220 227 216 225 239 154 135 153 171 155 134 136 144 137 133 140 148 147 142 141 143 144 141 142 147 149 151 155 157 158 159 159 158 156 152 154 158 151 144 145 148 147 146 143 141 141 140 138 136 133 130 127 124 122 119 116 114 112 109 106 104 101 98 96 93 91 88
198 209 221 240 232 198 185 189 182 183 196 203 208 203 197 213 233 226 191 200 219 233 227 184 143 146 162 170 158 141 138 142 139 143 149 151 148 143 139 141 141 139 141 147 152 154 157 159 161 162 160 160 158 154 155 158 151 145 149 151 149 148 145 144 144 141 139 137 134 130 128 126 124 121 118 116 113 110 107 104 101 99 97 95 93 90
200 218 226 234 229 205 197 198 185 181 199 203 202 208 199 201 218 230 221 201 201 235 241 152 140 155 165 163 158 148 149 154 150 144 141 141 144 146 147 148 147 146 148 153 159 160 159 163 166 161 158 162 161 153 153 158 151 147 151 153 150 149 148 147 145 141 140 137 133 131 129 127 125 122 120 118 114 111 109 106 103 102 99 96 94 92
204 224 227 218 219 226 217 196 182 184 200 206 201 201 204 203 205 219 235 221 208 235 246 185 165 171 166 167 165 150 143 150 149 141 139 141 146 150 156 160 158 156 157 161 164 163 162 167 167 160 160 166 165 157 153 154 152 151 153 152 151 150 149 147 145 142 141 137 134 133 131 129 128 125 122 119 116 115 113 109 108 105 102 99 97 95
212 238 227 207 210 235 220 193 206 204 195 199 201 198 206 210 202 207 221 222 217 225 226 229 232 196 169 170 164 147 140 145 153 156 151 148 151 156 163 168 168 165 163 164 167 166 167 170 166 162 166 168 165 161 156 152 153 154 153 152 152 151 149 148 145 143 141 138 137 135 133 131 130 127 124 121 119 118 115 112 110 107 103 102 99 98
202 248 226 200 200 235 208 200 248 229 193 194 203 201 204 211 208 204 208 211 214 211 204 220 239 213 175 163 146 139 143 149 157 164 157 153 159 165 169 173 174 174 171 168 170 172 171 172 167 164 168 169 163 161 159 156 155 155 154 154 152 150 149 148 146 144 142 140 139 136 135 133 130 128 126 123 122 121 118 115 112 108 106 104 101 101
205 230 218 195 188 213 208 213 269 263 200 199 206 203 203 207 208 208 212 212 207 203 202 213 218 190 169 166 148 142 150 161 167 169 163 161 166 169 174 178 176 176 176 173 172 175 172 171 169 165 169 174 166 161 162 161 157 155 156 154 151 149 149 147 146 145 142 141 140 137 136 135 132 129 127 125 124 122 120 116 112 110 107 105 104 102
212 221 214 196 185 181 186 203 257 245 217 217 268 250 229 211 201 203 211 210 205 206 209 222 233 214 179 181 165 151 159 173 176 173 168 164 166 169 177 183 181 178 177 173 174 177 171 167 168 167 173 176 161 154 160 161 154 153 154 153 149 148 149 148 146 145 143 141 141 139 138 137 133 130 128 127 126 123 120 117 113 112 109 106 105 102
201 215 211 192 198 193 167 167 225 228 209 25 352 303 273 244 218 210 209 204 203 206 208 220 234 228 205 193 172 162 172 176 169 169 171 170 170 171 176 182 184 182 178 172 173 175 168 167 167 168 176 175 154 149 157 155 149 151 153 152 151 149 149 149 147 146 144 142 141 141 141 138 134 131 130 129 127 123 121 119 116 115 112 108 106 103
191 207 218 193 200 208 175 178 210 201 134 83 11 317 278 271 263 241 223 208 203 200 199 213 227 225 217 202 179 179 187 173 162 165 170 173 175 174 177 180 179 179 175 172 174 171 167 169 167 168 176 167 148 148 156 153 151 155 154 152 152 151 151 150 148 147 145 143 143 144 142 138 135 133 132 131 129 125 123 122 120 118 116 112 108 104
195 202 223 212 201 217 204 187 173 121 118 182 231 203 221 237 244 246 249 237 227 216 200 204 218 220 215 204 188 190 187 170 164 167 168 172 175 175 176 176 174 174 170 167 168 166 165 169 168 171 172 155 144 150 156 153 154 156 154 155 155 154 154 151 148 147 146 145 145 144 142 139 137 135 134 133 130 128 126 125 122 121 120 118 113 109
198 209 223 218 198 218 224 201 180 167 183 204 201 190 198 218 219 218 234 241 237 229 207 204 217 221 221 214 193 176 169 171 177 174 167 169 171 172 173 171 170 170 164 161 163 165 166 168 169 171 165 150 147 151 152 152 155 156 157 158 157 156 156 152 149 148 147 147 146 144 142 140 138 137 136 134 132 130 130 128 128 128 126 123 122 119
190 201 220 221 209 219 233 229 210 206 215 202 187 177 182 201 197 195 223 236 224 215 210 214 219 219 226 224 174 140 150 178 189 178 165 165 167 169 170 166 162 161 159 160 165 168 166 164 167 169 161 152 150 148 148 153 160 160 160 161 159 158 155 152 150 150 148 147 146 144 142 141 140 139 137 134 134 134 133 132 131 131 131 130 130 129
186 186 215 225 224 222 228 239 228 232 299 177 158 159 170 180 184 197 213 225 225 214 211 213 219 221 221 206 148 145 173 198 199 171 159 161 166 167 166 164 160 158 160 164 170 170 163 161 165 166 158 152 150 147 151 159 165 165 164 163 161 158 154 152 151 149 148 147 144 142 142 141 140 139 136 135 136 135 134 133 133 136 140 140 136 133
183 179 210 223 223 211 209 232 227 180 67 101 127 143 154 161 191 213 210 240 314 274 217 206 211 221 216 182 151 166 189 167 114 147 151 156 165 164 159 157 159 162 165 168 170 169 163 163 165 160 153 152 151 153 159 165 167 168 166 163 161 157 154 152 150 148 147 145 142 141 141 140 139 137 135 136 137 135 134 136 139 143 145 139 132 132
184 182 195 209 222 213 203 226 233 206 137 125 134 142 150 161 191 215 230 299 321 329 285 203 207 219 205 166 150 152 112 84 112 136 146 154 162 160 153 152 157 164 166 167 169 166 164 166 163 157 156 157 157 162 168 168 166 168 166 162 159 156 153 151 149 147 146 144 142 140 139 139 138 137 136 137 137 135 135 138 141 142 138 132 132 137
176 185 201 199 212 222 208 212 226 229 197 176 158 154 169 183 161 88 327 331 343 349 348 258 231 228 151 127 117 100 95 112 128 137 146 154 158 156 151 153 159 160 158 162 166 164 164 166 161 157 161 163 162 167 171 167 165 167 164 161 157 153 152 151 149 148 146 143 140 139 139 140 139 138 138 139 138 136 137 140 141 140 136 137 142 148
175 182 210 197 198 224 220 201 214 165 153 160 150 137 139 105 52 9 0 44 27 350 325 293 298 88 106 112 111 114 126 135 136 141 149 154 156 156 150 152 159 157 154 158 162 162 165 167 160 157 163 165 164 167 170 167 165 165 162 158 155 153 151 150 149 147 144 141 139 139 140 140 140 140 141 140 139 140 141 144 146 145 147 155 159 160
173 155 171 190 200 214 121 90 67 76 104 105 93 94 100 91 56 22 41 83 77 3 332 17 90 93 109 119 121 129 141 143 144 149 152 154 159 159 153 154 160 159 156 156 159 164 171 170 160 157 164 168 165 163 167 168 164 162 160 156 154 153 152 151 149 145 142 141 141 142 143 142 141 142 142 141 143 144 146 152 156 158 169 181 178 172
95 101 120 141 144 78 94 110 111 96 88 81 86 96 91 81 65 47 52 71 73 47 26 93 131 128 131 132 133 143 151 150 155 159 155 157 162 159 156 158 158 158 158 157 161 168 171 165 162 165 170 172 165 158 162 169 166 161 158 154 154 155 153 151 148 144 143 145 145 146 146 144 143 144 144 145 147 148 154 165 169 171 181 186 179 174
76 58 144 169 178 121 105 123 126 116 113 114 110 101 99 92 74 62 62 65 60 55 49 65 123 142 143 139 142 155 158 158 163 162 156 161 163 159 160 156 145 150 158 158 159 166 166 163 168 170 166 165 161 157 162 167 164 160 157 154 156 157 154 151 148 146 147 148 149 149 148 145 146 147 148 150 153 156 166 177 177 177 180 178 176 175
63 325 260 210 204 190 122 89 78 116 137 183 218 144 121 126 99 78 74 78 77 75 65 63 107 138 143 141 142 152 162 164 165 161 160 164 163 161 165 152 137 148 158 154 154 165 171 169 168 162 154 157 161 162 163 164 162 160 158 157 159 158 154 151 150 149 151 151 151 151 150 148 150 150 152 158 162 165 174 180 180 178 169 157 161 165
47 307 241 208 218 214 148 116 102 165 148 167 248 63 64 81 94 89 86 96 100 97 90 87 101 118 133 138 138 152 162 158 157 158 160 162 160 161 157 141 137 149 159 157 160 171 174 170 166 161 157 159 162 162 162 161 161 160 159 159 161 158 153 152 152 152 153 152 152 152 151 151 153 155 158 165 166 163 167 174 180 180 166 149 147 143
239 276 281 214 223 234 112 89 59 128 127 51 23 59 70 70 76 85 108 114 104 99 100 102 97 99 120 133 139 154 156 150 152 156 154 153 155 156 154 146 146 154 160 161 167 173 171 167 167 164 160 160 161 161 161 160 159 160 161 162 162 158 154 153 152 152 154 154 154 154 154 155 159 161 164 169 165 157 155 156 160 167 170 175 179 167
345 351 2 21 84 70 61 50 38 87 124 129 39 62 83 87 83 116 128 113 90 88 95 109 114 118 129 134 143 158 156 151 154 156 156 157 157 162 167 160 153 156 161 163 168 172 169 167 167 164 160 160 161 161 161 159 159 161 163 163 160 157 155 154 153 153 156 157 157 157 156 161 167 167 166 172 172 162 159 157 145 143 161 188 200 197
Height
734 741 743 741 738 734 731 728 727 728 725 726 729 732 735 734 727 718 710 704 709 727 733 726 737 758 771 770 766 766 766 767 773 779 781 783 787 790 792 794 796 799 800 799 800 799 797 797 798 800 800 800 803 806 809 811 813 815 817 818 820 822 824 825 826 828 830 831 833 836 838 839 840 845 849 847 843 841 840 839 838 836 836 834 834 835
733 741 738 731 731 728 727 725 725 728 724 721 723 726 729 729 723 711 704 701 705 725 730 724 747 766 765 767 767 766 769 771 774 779 780 782 787 789 789 792 796 798 798 798 799 798 797 797 799 800 800 799 800 802 806 809 812 815 816 817 818 821 823 825 827 829 831 833 834 837 839 840 841 844 848 845 843 842 841 840 838 837 836 835 835 836
738 737 729 725 726 725 725 724 725 728 725 722 719 721 725 723 719 709 700 697 703 723 727 725 755 772 763 766 770 767 766 767 772 775 778 782 786 789 788 792 796 797 796 797 797 798 797 797 799 800 800 799 799 801 805 808 811 814 815 817 819 821 824 826 828 829 831 833 834 837 839 839 842 845 846 844 843 842 841 840 839 837 836 836 836 836
739 731 723 722 723 724 725 724 726 728 726 724 718 718 721 716 718 716 703 695 701 717 723 729 758 772 766 767 767 766 766 766 770 774 779 782 786 789 789 790 793 793 794 795 796 797 797 798 799 800 801 801 801 802 805 808 810 813 815 817 819 821 824 826 827 828 830 832 834 836 838 840 843 846 845 844 843 842 841 840 839 839 838 838 837 837
730 723 718 719 720 722 725 722 724 728 728 725 717 715 715 710 712 711 700 696 706 716 718 732 765 775 767 770 770 768 769 769 771 776 782 783 785 791 792 790 789 788 791 793 795 797 797 799 799 800 802 802 803 803 805 808 810 813 815 817 819 821 823 825 827 828 830 832 834 835 840 844 846 846 845 844 844 843 842 842 841 841 840 839 839 838
721 715 713 718 719 719 722 720 720 725 728 726 716 708 706 704 705 703 699 705 723 734 722 730 770 783 769 767 770 769 771 772 772 775 782 783 783 788 792 792 788 787 790 791 794 796 797 799 800 800 802 803 804 804 806 808 810 812 815 817 819 821 823 825 827 830 832 833 834 835 842 847 846 845 845 845 845 844 844 843 843 842 841 840 839 839
714 709 710 716 717 717 721 720 715 718 726 726 712 704 704 703 703 701 700 713 734 741 729 729 757 776 774 768 764 766 770 770 772 777 781 782 781 783 789 793 791 788 790 791 794 796 797 799 800 801 803 805 805 806 808 809 810 813 815 818 818 819 821 824 826 829 832 834 835 837 843 846 845 845 845 845 845 845 845 845 844 843 842 841 840 840
707 707 710 712 713 716 721 719 710 709 720 720 705 703 708 706 704 699 701 717 727 729 732 731 738 758 773 768 758 762 770 770 774 780 782 782 781 781 785 790 790 789 790 792 794 796 798 799 801 803 804 806 807 808 809 810 812 814 815 817 816 818 820 823 825 827 830 834 836 839 842 843 844 845 845 846 846 846 846 846 845 844 843 842 842 842
702 706 708 709 713 715 715 712 703 704 713 710 700 702 706 705 705 699 700 714 718 727 742 734 731 754 765 756 754 761 768 772 774 775 777 782 784 783 787 792 792 790 790 792 794 795 798 800 803 805 805 807 809 810 811 811 813 815 815 816 817 819 822 824 825 827 829 834 836 839 841 842 844 845 846 847 847 847 846 846 845 844 844 844 843 844
699 700 698 704 712 710 707 703 697 703 709 703 696 700 702 702 703 702 704 710 717 736 747 731 730 756 761 749 757 767 768 769 769 767 770 779 785 787 790 794 792 789 788 791 794 795 798 801 804 806 807 809 810 811 812 812 813 815 816 818 819 821 824 825 826 828 832 835 837 839 841 843 844 845 846 846 846 846 846 846 845 845 845 845 845 845
693 693 691 696 703 701 700 699 694 698 701 699 699 701 705 706 706 708 703 705 729 751 746 727 724 746 759 750 751 759 758 756 759 763 767 773 780 785 787 787 785 784 787 790 794 796 799 803 805 807 809 810 812 813 813 814 814 816 817 819 821 823 825 827 828 831 834 836 838 840 842 843 844 845 845 845 845 845 845 845 846 846 846 846 847 847
689 696 695 690 693 693 696 698 695 693 696 702 705 706 717 722 719 721 714 717 749 761 742 723 716 734 756 751 742 744 744 746 752 757 764 770 775 778 780 781 779 782 787 791 795 798 800 804 806 808 810 811 813 814 814 815 815 816 818 820 823 826 828 830 832 835 836 838 840 841 843 843 843 844 844 844 844 844 845 846 846 847 848 848 848 847
691 695 696 690 687 685 694 702 702 699 701 707 706 709 730 741 739 745 744 743 756 751 730 720 718 731 742 735 731 737 737 741 746 749 757 765 770 773 774 777 778 781 787 792 796 799 801 804 806 808 810 812 813 814 815 816 816 818 820 822 825 828 831 833 835 837 839 840 841 842 842 843 843 843 843 843 844 845 846 847 848 848 849 849 849 848
699 692 688 690 688 682 690 703 709 707 705 708 707 713 733 744 754 765 759 754 755 742 723 716 720 731 732 721 720 727 732 739 744 749 756 760 764 769 770 773 777 780 787 793 796 799 802 803 806 808 810 812 813 814 815 816 818 820 822 825 827 830 832 834 836 838 839 841 841 842 842 842 842 842 843 844 845 846 847 848 849 850 850 850 849 849
708 704 692 693 696 691 692 695 699 702 704 705 701 709 724 729 745 760 754 751 753 740 724 721 729 737 736 728 719 718 726 737 747 753 756 760 763 766 769 772 776 781 787 793 796 799 802 803 806 808 809 812 813 814 816 817 819 821 824 827 828 830 832 834 836 838 839 840 840 841 841 842 843 843 844 845 847 848 849 850 850 850 850 850 850 849
706 708 695 694 696 695 698 692 685 696 708 704 696 710 721 712 718 736 737 734 740 742 732 727 732 732 728 726 719 718 725 733 747 755 755 761 767 769 772 773 776 781 786 791 796 799 801 803 805 807 809 811 812 814 816 818 821 823 826 828 829 831 833 835 837 838 839 840 840 841 842 843 844 845 846 847 848 850 850 851 851 851 851 850 850 850
703 704 691 694 696 690 696 692 682 694 706 703 705 715 710 695 701 725 735 727 735 752 742 726 733 734 731 731 722 720 727 730 741 753 755 761 767 769 771 772 775 779 784 790 795 797 800 802 805 807 808 810 813 815 817 819 822 824 826 828 830 832 834 836 838 839 840 841 842 843 843 845 846 847 848 849 850 850 851 851 851 851 851 850 850 850
696 702 690 692 700 691 687 688 683 684 691 701 712 709 698 695 698 714 737 742 747 759 744 725 732 739 741 743 728 720 729 732 737 748 753 757 763 765 767 770 774 777 782 789 794 796 799 801 804 806 808 811 813 815 817 820 822 824 826 829 831 833 835 837 838 840 841 842 843 844 844 846 846 847 848 849 850 850 851 851 851 851 851 851 851 851
688 702 696 689 696 691 683 690 694 687 683 691 699 695 698 713 714 716 735 746 752 761 749 729 726 728 732 736 729 723 728 734 736 741 747 751 757 761 763 768 774 778 783 788 793 797 798 801 803 805 808 810 813 815 817 819 822 824 827 829 831 833 835 837 839 840 842 842 843 844 844 846 846 847 848 849 850 850 850 851 851 851 851 851 851 852
683 700 704 689 687 690 689 696 704 699 688 685 690 692 696 706 711 714 722 729 740 755 753 740 732 727 718 715 720 721 720 729 736 738 743 750 754 758 762 767 774 779 783 787 792 796 798 800 803 804 807 810 812 815 816 818 821 823 826 829 831 833 835 837 839 840 841 842 842 843 844 845 846 847 848 849 850 850 850 851 851 851 851 852 852 853
683 695 704 695 688 696 701 699 697 697 696 695 699 702 702 700 700 706 711 713 724 742 749 747 743 730 708 699 709 714 713 722 732 734 740 747 751 756 761 767 774 779 783 786 791 795 797 799 802 804 807 809 811 814 816 818 820 823 826 828 830 832 834 836 838 839 840 841 842 843 844 845 846 847 848 849 849 850 850 851 851 852 852 853 853 854
685 691 703 707 702 702 701 691 687 689 692 698 702 700 700 702 704 716 723 710 706 724 735 739 743 732 709 699 704 709 711 718 726 730 737 744 747 753 759 764 772 778 782 786 790 793 796 798 801 804 806 809 811 813 815 817 820 823 825 827 829 831 833 835 837 838 839 840 841 842 843 845 846 847 848 849 849 850 851 852 852 853 853 854 854 855
680 687 700 708 701 696 692 686 686 686 684 691 697 692 692 698 702 717 728 716 711 718 716 722 737 733 714 703 703 706 709 714 722 729 736 743 746 750 757 762 768 775 780 785 788 792 795 798 800 803 805 808 810 811 814 816 819 822 825 826 828 829 832 834 836 837 839 840 841 842 843 845 846 847 848 849 850 851 851 852 853 854 854 855 855 856
681 689 699 703 695 690 688 685 685 685 685 692 694 688 690 695 695 701 709 711 719 722 715 725 742 736 717 704 701 703 706 711 720 727 733 742 747 751 756 761 767 774 779 783 787 790 794 797 800 802 805 807 809 811 813 815 818 821 823 825 827 828 831 834 835 837 839 840 841 842 843 845 846 847 848 849 850 851 852 853 854 855 855 856 856 856
688 694 699 708 712 709 704 700 697 692 689 693 692 690 693 690 691 699 700 706 721 721 714 726 739 732 717 706 701 702 706 711 718 724 730 739 747 752 755 760 767 774 778 783 786 790 793 796 799 801 803 806 808 810 812 814 817 820 822 824 826 828 830 833 835 837 838 840 841 842 843 845 846 847 848 850 851 852 853 854 855 856 856 857 857 857
689 696 698 707 719 721 717 710 703 696 693 693 690 692 695 692 692 701 705 715 726 720 711 720 730 728 717 708 705 705 707 712 718 724 731 736 744 751 755 761 768 773 778 782 785 789 792 795 798 800 802 805 807 809 811 813 815 818 821 824 826 828 830 832 834 836 838 840 841 842 844 845 846 848 849 850 851 853 854 855 856 856 857 858 858 859
688 694 693 696 700 702 702 695 688 690 697 699 694 692 696 695 691 695 708 719 721 718 717 717 721 729 724 713 711 710 710 714 719 727 734 737 743 750 756 763 769 773 778 782 785 789 792 794 797 799 801 804 806 808 810 812 813 816 820 823 826 828 830 832 834 836 838 840 841 843 844 845 847 848 849 850 852 853 854 855 856 857 858 859 859 860
692 697 694 692 687 681 683 683 680 686 694 697 696 694 695 697 694 698 711 715 713 722 728 716 715 729 727 715 714 714 715 718 721 727 733 737 743 750 757 764 769 773 778 781 785 789 791 794 797 798 800 802 804 807 809 811 813 816 820 823 825 828 830 832 834 836 838 840 841 843 844 846 847 848 849 851 852 854 855 856 857 858 859 859 860 861
696 702 695 690 686 676 674 676 676 683 690 691 693 694 694 696 699 702 706 704 707 722 725 714 716 725 721 714 714 715 717 720 721 726 732 738 744 750 757 764 769 773 777 780 784 787 790 793 795 797 800 802 804 806 808 810 813 816 820 822 825 828 830 832 833 835 838 840 841 843 844 846 847 848 850 851 852 854 855 856 858 858 859 860 861 862
693 700 691 687 689 683 675 673 674 683 689 688 688 691 693 696 698 702 704 700 704 712 711 709 716 718 712 712 712 711 714 718 721 726 733 742 748 752 758 764 768 772 776 778 782 785 788 791 792 795 798 800 802 805 807 810 813 816 819 821 824 827 829 831 833 835 837 839 841 843 844 846 847 849 850 851 853 854 856 857 858 859 860 861 862 863
694 700 688 684 695 693 680 677 680 682 687 691 692 692 694 697 698 702 704 702 706 711 708 709 716 713 705 704 707 711 714 718 724 728 733 741 748 752 758 763 766 770 774 777 780 783 786 788 791 794 796 798 801 803 806 810 813 816 818 821 824 826 828 830 832 834 837 839 841 843 844 846 847 849 850 852 853 855 856 858 859 860 861 862 863 864
698 702 689 687 705 705 688 686 688 680 682 693 696 693 695 698 699 700 701 702 706 711 712 715 719 714 703 699 706 714 716 721 728 730 734 741 746 751 757 761 764 767 771 774 778 781 784 787 789 793 795 797 800 802 805 809 812 815 817 820 823 825 827 830 832 834 836 838 840 842 844 846 847 849 850 852 854 855 856 858 859 860 862 862 863 865
697 702 695 697 713 713 698 694 693 689 698 705 697 689 691 694 696 699 699 699 700 705 714 720 716 708 701 701 709 718 721 724 727 729 733 739 744 750 755 758 762 765 768 772 776 779 782 785 788 792 794 796 798 801 804 807 810 814 817 820 822 824 827 829 831 834 836 838 840 842 844 846 847 849 850 852 854 856 857 858 860 861 862 863 864 865
696 699 696 697 710 716 707 701 702 711 723 716 694 684 687 689 694 700 701 700 699 701 707 710 706 701 701 703 709 717 721 723 723 725 730 735 741 748 752 756 760 763 766 771 774 777 781 784 788 791 794 796 797 800 804 806 810 814 817 819 822 824 827 829 831 834 835 837 840 842 844 846 847 849 851 852 854 856 857 859 860 861 863 864 865 865
698 700 698 696 704 709 706 711 727 735 726 708 694 688 685 683 687 694 696 696 697 699 702 705 704 701 701 701 704 710 715 717 720 724 727 732 737 743 749 753 756 759 764 769 773 776 779 783 787 790 792 795 796 800 804 807 810 814 817 819 822 824 826 829 831 833 835 837 840 842 844 846 847 849 851 852 854 856 858 859 860 862 863 864 865 866
698 701 699 697 701 705 707 720 737 733 714 704 702 697 692 690 691 696 700 696 692 696 700 704 704 700 698 699 701 704 707 710 716 721 725 730 734 738 744 748 751 756 761 766 770 774 778 781 785 788 791 793 795 799 803 807 810 814 816 819 822 824 826 829 831 833 835 837 839 842 844 845 847 849 851 853 855 856 858 860 861 862 863 864 866 867
692 698 700 701 703 704 708 715 720 722 720 717 711 702 698 698 697 701 709 703 692 690 694 699 701 699 697 698 698 700 703 708 716 722 724 728 733 736 740 743 747 753 758 764 770 774 777 782 784 787 790 792 795 799 802 806 810 813 816 819 821 824 826 828 830 832 835 837 839 842 844 845 847 849 851 853 855 856 858 860 861 863 864 865 866 867
690 693 698 706 706 701 705 711 716 728 732 721 708 698 694 696 693 696 710 710 696 689 691 695 698 698 696 696 697 699 704 714 722 723 722 726 731 734 738 742 746 751 757 763 769 773 777 782 784 787 790 792 795 799 802 806 810 813 816 818 821 823 826 828 830 832 834 837 839 841 843 845 847 849 851 853 855 857 858 860 861 863 864 866 867 868
689 691 693 703 707 703 707 714 716 722 719 704 697 694 692 694 691 696 716 720 700 689 691 693 696 697 696 696 697 701 711 722 725 720 718 723 728 731 735 739 744 751 757 762 768 772 776 780 783 787 789 792 795 798 801 806 809 812 816 818 820 823 825 827 829 832 834 837 839 841 843 845 847 849 851 853 855 857 858 860 861 863 864 866 867 868
690 694 696 704 708 706 709 712 712 716 710 693 688 691 691 690 692 709 733 726 697 687 690 690 693 695 693 695 700 705 713 719 717 712 712 719 724 728 732 736 741 749 755 761 766 771 775 779 783 786 788 791 794 797 801 806 808 811 815 817 820 822 824 826 829 831 834 837 839 841 843 845 848 849 851 854 855 857 859 860 861 863 864 866 867 868
695 698 702 707 708 705 710 714 711 713 707 691 687 691 689 692 706 724 731 714 692 688 688 685 690 692 689 693 701 705 708 709 707 706 709 715 722 726 730 736 741 747 753 759 765 769 774 778 782 785 788 791 794 798 802 805 808 811 814 817 819 821 823 826 828 831 834 836 838 841 843 846 848 850 852 854 856 857 859 860 862 863 864 865 867 868
700 702 703 705 706 704 707 712 711 710 702 691 690 691 692 705 722 722 709 697 692 690 685 683 687 688 687 692 698 702 705 705 705 707 711 716 721 724 728 735 741 746 753 759 764 769 773 776 780 784 788 791 794 798 801 804 808 811 814 816 819 821 823 826 828 831 834 836 838 841 844 846 848 850 852 854 856 857 859 861 862 863 864 865 867 868
698 705 706 704 704 704 706 710 716 716 702 690 693 697 699 709 714 706 696 694 693 690 687 687 687 686 688 694 699 703 706 707 709 712 715 718 721 723 728 733 738 744 750 757 762 767 771 775 779 783 786 790 794 797 800 804 808 811 813 816 818 821 823 825 828 831 833 836 838 841 844 846 848 850 853 854 856 858 859 861 862 863 864 866 867 868
692 701 707 702 699 703 709 711 711 707 695 690 696 701 702 702 700 697 697 697 694 693 692 690 690 689 692 697 702 706 708 711 713 714 716 720 722 724 728 733 736 742 749 755 761 765 769 774 777 781 786 789 793 797 800 804 807 809 812 815 817 820 823 825 828 831 833 836 839 841 844 847 848 851 853 854 856 858 859 861 863 864 865 866 866 867
689 691 699 698 692 694 702 704 700 696 692 693 698 699 698 698 696 696 697 697 697 698 695 693 695 694 694 698 704 707 709 712 714 715 717 720 722 724 728 733 737 742 748 754 760 764 768 772 776 780 785 789 792 796 800 803 806 808 811 814 817 819 822 825 828 830 833 836 839 842 844 846 849 851 852 854 856 858 860 861 862 864 865 865 865 866
687 685 691 695 692 691 696 697 695 696 697 697 697 697 698 698 697 696 697 698 699 698 696 696 697 697 697 701 705 708 710 713 714 716 718 720 722 724 728 733 737 742 747 753 759 763 767 771 775 779 783 786 789 793 799 803 805 807 810 813 816 819 822 825 827 830 833 836 839 842 844 846 848 851 852 854 856 858 860 861 862 863 864 864 864 865
687 686 689 694 696 700 703 699 694 698 702 702 701 700 699 699 698 698 700 701 700 699 699 698 697 698 700 702 706 709 711 712 714 717 718 720 723 726 728 733 738 742 747 752 757 762 766 770 775 778 781 783 787 792 797 801 804 807 810 813 816 819 821 824 826 829 833 836 838 841 843 845 848 850 852 854 856 858 860 861 861 862 863 863 864 864
693 692 693 694 696 700 703 701 696 697 701 702 702 702 700 700 701 700 701 701 701 701 702 700 700 701 702 704 707 710 711 712 715 717 718 721 723 726 729 734 739 744 748 753 758 762 766 770 774 777 779 783 788 792 796 799 803 806 810 812 815 818 820 823 826 829 832 835 837 840 842 844 847 849 852 854 855 857 859 860 861 862 862 862 862 863
695 696 695 694 695 696 700 704 703 703 704 703 701 700 700 700 702 703 703 703 702 703 704 703 702 702 703 706 708 710 712 714 715 716 719 721 723 726 730 735 741 746 750 754 759 763 767 771 775 777 780 784 788 791 794 798 801 805 808 811 814 817 819 822 826 829 832 834 837 839 841 843 846 848 851 853 855 856 858 859 860 860 860 861 862 862
696 699 696 696 702 705 707 709 707 708 712 709 703 702 703 702 703 705 705 704 704 705 706 706 705 705 706 707 709 711 714 715 716 717 720 721 724 727 731 736 743 748 751 755 760 764 768 772 775 778 780 783 787 790 793 797 800 804 808 810 813 816 819 822 825 828 831 833 836 838 841 843 845 848 850 852 854 855 857 858 859 859 860 861 862 862
701 703 701 704 709 709 707 706 704 706 711 710 705 704 704 703 705 706 706 706 706 706 706 708 709 709 709 709 710 712 714 716 717 719 721 724 726 729 731 736 741 746 751 756 760 764 768 773 776 778 780 782 786 789 792 795 799 803 806 809 812 815 818 821 824 827 830 833 835 837 840 842 845 847 849 851 853 854 856 857 859 859 861 861 862 862